Location: New Canada
(47.1017°N, 68.5042°W)
Time: 12:50:14
(UTC+00:00)

N. Korean satellite - Pass Details

Date: 02 December 2022
Orbit: 407 x 441 km, 97.3° (Epoch: 05 February)

Event Time Altitude Azimuth Distance (km) Brightness Sun altitude
Rises 09:20:55 0° 22° (NNE) 2,529 10.4 -26.4°
Reaches altitude 10° 09:23:11 10° 33° (NNE) 1,642 9.6 -26.0°
Maximum altitude 09:26:19 29° 96° (E) 880 8.5 -25.5°
Drops below altitude 10° 09:29:23 10° 159° (SSE) 1,610 9.5 -24.9°
Sets 09:31:35 0° 170° (S) 2,470 10.4 -24.6°
